STARLINK-11507, 62519

Orbit data source: Space-Track

STARLINK-11507, 62519 is a payload satellite owned by SpaceX/Seattle (US) in LEO that was launched on Wed, 08 Jan 2025 UTC via an FALCON 9 launch vehicle from the Air Force Eastern Test Range (AFETR). Payload-class satellites include a variety of spacecraft equipped with specific instruments for various scientific and technological missions. These include communications satellites like Starlink; space stations such as the ISS; scientific satellites like the Hubble; Earth observation satellites from companies like Planet Labs, Umbra, and HawkEye 360; GPS; miniature CubeSats for education and research; and military/defense satellites.

Loading next visibility...
Identifier
62519, 2025-004J
Orbit
LEO
Country
Flag of USUS
Related business
Manufacturer
SpaceX/Seattle
Mission
Operational Commercial Communications
Bus & Motor
STARLINK V2MD, Unknown motor
Mass
960 kg wet, ~910 kg dry
Launch date (UTC)
2025-01-08 (2 years ago)
Launch vehicle
FALCON 9
Launch site
Air Force Eastern Test Range (AFETR)
Object type
Payload
Rocket body
Debris
Shape & HBR
Box + 2 Pan, 18.1 m
Radar Cross Section
36.964 m², Large (>1 m²)

Expand to show TLE details & history
Last TLE update: 9 hours ago

TLE from 9 hours ago
0 STARLINK-11507
1 62519U 25004J   26254.77526196  .00258535  00000-0  19506-2 0  9997
2 62519  43.0009  29.1835 0001774 277.8466  82.2200 15.70909675 96477
Epoch: 2026-09-11T18:36Z
TLE epoch observation values (Epoch: 2026-09-11T18:36:22.633Z)
Latitude
-0.00003°
Longitude
119.29538°
Altitude
355.906 km
Speed
7.698 km/s
True Right ascension
01h 56m 44s
True Declination
0° 00' 00"
Sunlit
Object was in full shadow at epoch
Visualization orbit readout
Latitude
Unknown
Longitude
Unknown
Altitude
Unknown
Speed
Unknown
Apparent Right ascension
Unknown
Apparent Declination
Unknown
Sunlit
N/A
Visualization observer readout
Local Sidereal Time
20:06:40
Azimuth
Unknown
Elevation
Unknown
Doppler factor
Unknown
Orbital elements
Apogee altitude
359.472 km
Perigee altitude
357.082 km
Semi-major axis
6,736.414 km
Eccentricity
0.00018
Inclination
43.0009°
RAAN
29.1835°
Arg. of periapsis
277.8466°
True anomaly
82.24014°
Mean anomaly
82.22°
Eccentric anomaly
82.23007°
Mean motion
3.92555 °/min
Orbital period
91.71 mins
BSTAR
0.0019506
Loading maneuver chart data...
Computing Atmospheric mass density...
Loading historical data...
Loading historical data...
Loading historical data...
Loading historical data...
Loading historical data...
Loading historical data...
Loading historical data...

Documentation

Showing up to 5 results
|